Home   Weather   Lörrach   Past weeks

Flag for Germany Past Weather in Lörrach, Baden-Württemberg, Germany — Yesterday and Last 2 Weeks

Now
30 °F

Clear.


Feels Like: 24 °F
Forecast: 23 / 45 °F
Wind: 6 mph from South

Location: Bale-Mulhouse

Current Time: Dec 8, 2016 at 5:15:06 am

Latest Report: Dec 8, 2016 at 4:30 am


Visibility: 10 mi

Pressure: 30.57 "Hg

Humidity: 86%

Dew Point: 27 °F

Location of LörrachLocation

Past Weather in Lörrach — Graph

°F

Lörrach Temperature Yesterday

Maximum temperature yesterday: 36 °F (at 1:30 pm)
Minimum temperature yesterday: 27 °F (at 3:30 am)
Average temperature yesterday: 30 °F

High & Low Weather Summary for the Past Weeks

 TemperatureHumidityPressure
High50 °F (Nov 26, 1:00 pm)100% (Nov 23, 4:00 am)30.57 "Hg (Nov 23, 4:00 am)
Low21 °F (Nov 29, 4:00 am)42% (Nov 28, 2:30 pm)29.86 "Hg (Nov 25, 4:30 am)
Average35 °F90%30.23 "Hg
* Reported Nov 23 3:00 am — Dec 8 3:30 am, Lörrach, Weather by CustomWeather, © 2016

Note: Actual official high and low records may vary slightly from our data, if they occured in-between our weather recording intervals... More about our weather records

Advertising

Lörrach Weather History for the Previous 24 Hours

Scroll right to see more
 ConditionsComfort  
Time TempWeatherWind HumidityBarometerVisibility
3:30 am
Thu, Dec 8
30 °FClear.5 mph86%30.57 "Hg10 mi
2:30 am30 °FClear.8 mph93%30.57 "Hg10 mi
2:00 am30 °FClear.6 mph93%30.57 "Hg10 mi
1:30 am30 °FClear.6 mph93%30.54 "Hg10 mi
1:00 am28 °FClear.8 mph93%30.57 "Hg10 mi
12:30 am28 °FClear.7 mph93%30.57 "Hg4 mi
12:00 am28 °FClear.5 mph100%30.57 "Hg5 mi
11:30 pm
Wed, Dec 7
28 °FClear.6 mph100%30.57 "Hg5 mi
11:00 pm28 °FClear.6 mph93%30.57 "Hg5 mi
10:30 pm28 °FClear.3 mph100%30.57 "Hg4 mi
10:00 pm28 °FClear.No wind93%30.57 "Hg4 mi
9:30 pm30 °FPassing clouds.2 mph93%30.57 "Hg4 mi
9:00 pm28 °FPassing clouds.5 mph100%30.57 "Hg4 mi
8:30 pm30 °FPassing clouds.3 mph93%30.57 "Hg4 mi
8:00 pm32 °FPassing clouds.5 mph100%30.57 "Hg4 mi
7:30 pm32 °FIce fog.5 mph100%30.57 "Hg0 mi
7:00 pm30 °FIce fog.5 mph100%30.57 "Hg0 mi
6:30 pm30 °FIce fog.No wind100%30.57 "Hg0 mi
6:00 pm30 °FIce fog.2 mph100%30.57 "Hg0 mi
5:30 pm30 °FIce fog.5 mph100%30.57 "Hg0 mi
5:00 pm30 °FIce fog.7 mph100%30.54 "Hg0 mi
4:30 pm32 °FIce fog.6 mph100%30.54 "Hg0 mi
3:30 pm32 °FFog.7 mph100%30.51 "Hg0 mi
3:00 pm32 °FFog.7 mph100%30.51 "Hg1 mi
2:30 pm34 °FChilly.7 mph93%30.51 "Hg3 mi
2:00 pm36 °FFog.7 mph93%30.51 "Hg4 mi
1:30 pm36 °FPartly sunny.3 mph93%30.51 "Hg5 mi
1:00 pm34 °FBroken clouds.3 mph100%30.51 "Hg5 mi
12:30 pm34 °FPartly sunny.3 mph100%30.51 "Hg4 mi
12:00 pm32 °FBroken clouds.3 mph100%30.54 "Hg4 mi
11:30 am32 °FIce fog.2 mph100%30.54 "Hg3 mi
11:00 am32 °FIce fog.3 mph93%30.54 "Hg3 mi
10:30 am30 °FIce fog.3 mph100%30.54 "Hg2 mi
10:00 am30 °FIce fog.3 mph100%30.54 "Hg1 mi
9:30 am30 °FIce fog.2 mph100%30.54 "Hg1 mi
9:00 am28 °FIce fog.2 mph100%30.54 "Hg1 mi
8:30 am28 °FIce fog.3 mph100%30.54 "Hg1 mi
8:00 am28 °FIce fog.2 mph100%30.54 "Hg0 mi
7:30 am28 °FIce fog.3 mph100%30.54 "Hg0 mi
7:00 am28 °FIce fog.3 mph100%30.54 "Hg0 mi
6:30 am28 °FIce fog.5 mph100%30.54 "Hg0 mi
6:00 am28 °FIce fog.3 mph100%30.54 "Hg0 mi
5:30 am28 °FIce fog.3 mph93%30.54 "Hg0 mi
5:00 am27 °FIce fog.1 mph100%30.54 "Hg0 mi
Weather by CustomWeather, © 2016

See weather overviewHow to use our weather pages